Weather History for Lamar, CO

Change the Weather History Date:

Sunday, January 5, 2014

  Actual Average Record
Temperature  
Mean Temperature 2 °F 28 °F  
Max Temperature 15 °F 44 °F 79 °F (1927)
Min Temperature -12 °F 12 °F -24 °F (1942)
Degree Days  
Heating Degree Days 63 37  
Month to date heating degree days 192 185  
Since 1 July heating degree days 2367 2498  
Cooling Degree Days 0 0  
Month to date cooling degree days 0 0  
Year to date cooling degree days 0 0  
Moisture  
Dew Point -1 °F    
Average Humidity 84    
Maximum Humidity 100    
Minimum Humidity 67    
Precipitation  
Precipitation T in 0.01 in 0.11 in (1940)
Month to date precipitation 0.04 0.03  
Year to date precipitation 0.04 0.03  
Sea Level Pressure  
Sea Level Pressure 30.35 in    
Wind  
Wind Speed 5 mph (NE)    
Max Wind Speed 13 mph    
Max Gust Speed 17 mph    
Visibility 6 miles    
Events Fog , Snow    
T = Trace of Precipitation, MM = Missing Value Source: NWS Daily Summary

Daily Weather History Graph

Daily Weather History Graph

Search for Another Location

Airport:

Trip Planner

Search our weather history database for the weather conditions in past years. The results will help you decide how hot, cold, wet, or windy it might be!

Date:

Astronomy

Jan. 05, 2014 Rise Set
Actual Time 7:07 AM MST 4:45 PM MST
Civil Twilight 6:38 AM MST 5:14 PM MST
Nautical Twilight 6:05 AM MST 5:47 PM MST
Astronomical Twilight 5:33 AM MST 6:19 PM MST
Moon 9:55 AM MST (1/5) 10:10 PM MST (1/5)
Length of Visible Light 10h 36m
Length of Day
9h 37m
Waxing Crescent, 25% of the Moon is Illuminated
Jan 5
Waxing Crescent
Jan 7
First Quarter
Jan 15
Full
Jan 23
Last Quarter
Jan 30
New

Hourly Weather History & Observations

Time (MST) Temp. Windchill Dew Point Humidity Pressure Visibility Wind Dir Wind Speed Gust Speed Precip Events Conditions
12:53 AM 7.0 °F 0.1 °F 3.0 °F 84% 30.22 in 10.0 mi SW 3.5 mph - N/A   Scattered Clouds
1:53 AM 1.9 °F -10.6 °F -0.9 °F 88% 30.25 in 10.0 mi SSW 6.9 mph - N/A   Clear
2:53 AM 1.0 °F -8.7 °F -2.0 °F 87% 30.26 in 10.0 mi SW 4.6 mph - N/A   Clear
3:53 AM -5.1 °F -13.6 °F -9.0 °F 83% 30.28 in 10.0 mi WSW 3.5 mph - N/A   Clear
4:53 AM -6.0 °F -20.1 °F -9.0 °F 87% 30.29 in 10.0 mi SSW 6.9 mph - N/A   Clear
5:53 AM -11.0 °F -20.4 °F -11.9 °F 96% 30.33 in 10.0 mi SSW 3.5 mph - N/A   Clear
6:07 AM -6.0 °F -18.6 °F -11.0 °F 79% 30.14 in 1.0 mi SSW 5.8 mph - N/A   Haze
6:14 AM -7.1 °F -19.9 °F -9.9 °F 87% 30.14 in 0.2 mi SW 5.8 mph - N/A Fog Light Freezing Fog
6:28 AM -9.0 °F -18.2 °F -11.9 °F 87% 30.16 in 1.2 mi South 3.5 mph - N/A   Mostly Cloudy
6:31 AM -9.0 °F -18.2 °F -11.0 °F 91% 30.16 in 0.8 mi South 3.5 mph - N/A   Mist
6:53 AM -9.0 °F -18.2 °F -11.9 °F 87% 30.36 in 0.2 mi SSW 3.5 mph - N/A Fog Light Freezing Fog
7:26 AM -7.1 °F -21.4 °F -9.9 °F 87% 30.19 in 1.2 mi SSW 6.9 mph - N/A   Overcast
7:28 AM -8.0 °F -21.0 °F -9.9 °F 91% 30.19 in 3.0 mi SSW 5.8 mph - N/A   Overcast
7:41 AM -7.1 °F -19.9 °F -9.0 °F 91% 30.20 in 1.2 mi SSW 5.8 mph - N/A   Overcast
7:43 AM -6.0 °F -18.6 °F -9.0 °F 87% 30.20 in 0.8 mi South 5.8 mph - N/A   Overcast
7:53 AM -4.0 °F -14.6 °F -6.0 °F 91% 30.38 in 0.5 mi SSW 4.6 mph - N/A Fog Light Freezing Fog
7:59 AM -0.9 °F -11.0 °F -4.0 °F 87% 30.20 in 1.0 mi South 4.6 mph - N/A   Overcast
8:02 AM -0.9 °F - -4.0 °F 87% 30.20 in 2.5 mi Calm Calm - N/A   Overcast
8:09 AM -0.0 °F -7.9 °F -4.0 °F 83% 30.21 in 6.0 mi SSW 3.5 mph - N/A   Overcast
8:17 AM -0.9 °F -8.9 °F -5.1 °F 83% 30.21 in 1.8 mi SSW 3.5 mph - N/A   Overcast
8:24 AM -0.9 °F -11.0 °F -4.0 °F 87% 30.22 in 3.0 mi SSW 4.6 mph - N/A   Overcast
8:53 AM -0.0 °F - -4.0 °F 83% 30.41 in 7.0 mi Calm Calm - N/A   Overcast
9:53 AM 5.0 °F - 3.0 °F 92% 30.42 in 10.0 mi Calm Calm - N/A   Overcast
10:17 AM 6.1 °F - 3.0 °F 87% 30.25 in 10.0 mi Calm Calm - N/A   Scattered Clouds
10:53 AM 9.0 °F 0.6 °F 1.0 °F 70% 30.40 in 10.0 mi North 4.6 mph - 0.00 in Snow Light Snow
11:19 AM 10.0 °F -0.9 °F 1.9 °F 70% 30.26 in 9.0 mi NE 6.9 mph - 0.00 in   Mostly Cloudy
11:53 AM 12.0 °F 1.5 °F 3.0 °F 67% 30.42 in 10.0 mi NNE 6.9 mph - 0.00 in   Overcast
12:18 PM 12.0 °F 0.5 °F 3.0 °F 67% 30.26 in 8.0 mi NNE 8.1 mph - N/A   Overcast
12:30 PM 12.9 °F 2.6 °F 5.0 °F 71% 30.26 in 1.8 mi NNE 6.9 mph - 0.00 in Snow Light Snow
12:34 PM 12.9 °F 1.6 °F 5.0 °F 71% 30.26 in 1.0 mi NNE 8.1 mph - 0.00 in Snow Light Snow
12:43 PM 14.0 °F 2.0 °F 6.1 °F 71% 30.26 in 1.5 mi NNE 9.2 mph - 0.00 in Snow Light Snow
12:53 PM 14.0 °F 1.2 °F 5.0 °F 67% 30.43 in 3.0 mi NNE 10.4 mph - 0.00 in Snow Light Snow
1:27 PM 14.0 °F 1.2 °F 7.0 °F 74% 30.26 in 2.5 mi NE 10.4 mph 16.1 mph 0.00 in Snow Light Snow
1:32 PM 14.0 °F 1.2 °F 7.0 °F 74% 30.27 in 1.2 mi NNE 10.4 mph 16.1 mph 0.00 in Snow Light Snow
1:35 PM 14.0 °F 2.0 °F 7.0 °F 74% 30.27 in 0.8 mi NNE 9.2 mph 16.1 mph 0.00 in Snow Light Snow
1:43 PM 14.0 °F 3.9 °F 8.1 °F 77% 30.26 in 1.2 mi NE 6.9 mph - 0.00 in Snow Light Snow
1:47 PM 15.8 °F 4.2 °F 8.6 °F 73% 30.27 in 2.0 mi NNE 9.2 mph - 0.00 in Snow Light Snow
1:53 PM 15.1 °F 3.3 °F 7.0 °F 70% 30.45 in 2.0 mi NE 9.2 mph - 0.00 in Snow Light Snow
2:02 PM 15.1 °F 4.2 °F 5.0 °F 64% 30.28 in 8.0 mi NE 8.1 mph - 0.00 in   Overcast
2:09 PM 15.1 °F 4.2 °F 5.0 °F 64% 30.28 in 10.0 mi NE 8.1 mph - 0.00 in   Overcast
2:53 PM 15.1 °F 5.2 °F 5.0 °F 64% 30.49 in 10.0 mi North 6.9 mph - 0.00 in   Overcast
3:24 PM 14.0 °F 1.2 °F 5.0 °F 67% 30.32 in 10.0 mi NNE 10.4 mph - N/A   Overcast
3:33 PM 14.0 °F 2.9 °F 5.0 °F 67% 30.32 in 10.0 mi NE 8.1 mph - N/A   Overcast
3:43 PM 14.0 °F 3.9 °F 5.0 °F 67% 30.32 in 10.0 mi NE 6.9 mph - N/A   Overcast
3:53 PM 14.0 °F 2.9 °F 5.0 °F 67% 30.53 in 10.0 mi NE 8.1 mph - N/A   Overcast
4:24 PM 12.9 °F 1.6 °F 3.9 °F 67% 30.34 in 10.0 mi NE 8.1 mph - N/A   Overcast
4:53 PM 12.0 °F 4.1 °F 5.0 °F 73% 30.55 in 10.0 mi ENE 4.6 mph - N/A   Overcast
5:53 PM 8.1 °F 1.4 °F 3.0 °F 80% 30.60 in 10.0 mi SSW 3.5 mph - N/A   Mostly Cloudy
6:53 PM 3.9 °F -8.2 °F -0.9 °F 80% 30.66 in 10.0 mi NW 6.9 mph - N/A   Mostly Cloudy
7:09 PM 1.0 °F -10.3 °F -2.9 °F 83% 30.42 in 10.0 mi WSW 5.8 mph - N/A   Overcast
7:21 PM 3.0 °F -4.4 °F -0.0 °F 87% 30.42 in 10.0 mi West 3.5 mph - N/A   Mostly Cloudy
7:53 PM 3.9 °F -5.3 °F -0.0 °F 84% 30.67 in 10.0 mi West 4.6 mph - N/A   Overcast
8:14 PM 5.0 °F -4.1 °F -0.0 °F 80% 30.44 in 10.0 mi West 4.6 mph - N/A   Overcast
8:53 PM 5.0 °F -5.6 °F -0.0 °F 80% 30.66 in 9.0 mi NW 5.8 mph - 0.00 in   Overcast
9:53 PM 6.1 °F -4.3 °F -0.9 °F 73% 30.66 in 10.0 mi North 5.8 mph - N/A   Overcast
10:10 PM 7.0 °F -1.7 °F 1.0 °F 77% 30.45 in 2.0 mi NNE 4.6 mph - 0.00 in Snow Light Snow
10:31 PM 6.1 °F -6.8 °F 1.0 °F 80% 30.45 in 3.0 mi NE 8.1 mph - 0.00 in Snow Light Snow
10:53 PM 3.9 °F -5.3 °F -0.9 °F 80% 30.64 in 6.0 mi ENE 4.6 mph - 0.00 in   Haze
11:10 PM 1.9 °F -7.6 °F -2.0 °F 83% 30.44 in 10.0 mi East 4.6 mph - N/A   Scattered Clouds
11:53 PM -2.0 °F -10.1 °F -6.0 °F 83% 30.63 in 10.0 mi SSE 3.5 mph - N/A   Clear